Time,TemperatureF,DewpointF,PressureIn,WindDirection,WindDirectionDegrees,WindSpeedMPH,WindSpeedGustMPH,Humidity,HourlyPrecipIn,Conditions,Clouds,dailyrainin,SoftwareType,DateUTC
2013-11-16 02:11:00,33.0,20.0,-100.00,WSW,245,9.0,10.0,57,-99.99,,,-99.99,,2013-11-16 09:11:00,
2013-11-16 02:53:00,31.0,19.0,-100.00,SW,220,4.0,6.0,59,-99.99,,,-99.99,,2013-11-16 09:53:00,
2013-11-16 03:12:00,31.0,19.0,-100.00,SSE,155,2.0,3.0,61,-99.99,,,-99.99,,2013-11-16 10:12:00,
2013-11-16 03:52:00,29.0,19.0,-100.00,WSW,255,2.0,4.0,66,-99.99,,,-99.99,,2013-11-16 10:52:00,
2013-11-16 04:12:00,30.0,20.0,-100.00,WSW,255,4.0,7.0,66,-99.99,,,-99.99,,2013-11-16 11:12:00,
2013-11-16 04:53:00,31.0,21.0,-100.00,West,260,5.0,6.0,63,-99.99,,,-99.99,,2013-11-16 11:53:00,
2013-11-16 05:12:00,32.0,20.0,-100.00,West,275,6.0,9.0,62,-99.99,,,-99.99,,2013-11-16 12:12:00,
2013-11-16 05:52:00,31.0,20.0,-100.00,SSE,160,1.0,6.0,62,-99.99,,,-99.99,,2013-11-16 12:52:00,
2013-11-16 06:11:00,31.0,20.0,-100.00,WSW,240,0.0,2.0,63,-99.99,,,-99.99,,2013-11-16 13:11:00,
2013-11-16 06:52:00,31.0,20.0,-100.00,SW,225,2.0,2.0,63,-99.99,,,-99.99,,2013-11-16 13:52:00,
2013-11-16 07:11:00,30.0,20.0,-100.00,West,260,2.0,4.0,63,-99.99,,,-99.99,,2013-11-16 14:11:00,
2013-11-16 07:52:00,32.0,21.0,-100.00,West,265,1.0,3.0,63,-99.99,,,-99.99,,2013-11-16 14:52:00,
2013-11-16 08:11:00,33.0,21.0,-100.00,SSW,210,1.0,2.0,62,-99.99,,,-99.99,,2013-11-16 15:11:00,
2013-11-16 08:53:00,34.0,22.0,-100.00,WNW,295,6.0,9.0,59,-99.99,,,-99.99,,2013-11-16 15:53:00,
2013-11-16 09:13:00,35.0,22.0,-100.00,West,275,6.0,6.0,59,-99.99,,,-99.99,,2013-11-16 16:13:00,
2013-11-16 09:53:00,36.0,22.0,-100.00,NNE,20,2.0,3.0,57,-99.99,,,-99.99,,2013-11-16 16:53:00,
2013-11-16 10:12:00,36.0,22.0,-100.00,North,10,1.0,2.0,57,-99.99,,,-99.99,,2013-11-16 17:12:00,
2013-11-16 10:52:00,37.0,22.0,-100.00,SW,235,4.0,7.0,55,-99.99,,,-99.99,,2013-11-16 17:52:00,
2013-11-16 11:12:00,38.0,23.0,-100.00,WSW,245,2.0,6.0,54,-99.99,,,-99.99,,2013-11-16 18:12:00,
2013-11-16 11:52:00,39.0,23.0,-100.00,SW,220,2.0,4.0,52,-99.99,,,-99.99,,2013-11-16 18:52:00,
2013-11-16 12:12:00,40.0,23.0,-100.00,SW,220,1.0,2.0,50,-99.99,,,-99.99,,2013-11-16 19:12:00,
2013-11-16 12:53:00,40.0,24.0,-100.00,WSW,240,4.0,7.0,53,-99.99,,,-99.99,,2013-11-16 19:53:00,
2013-11-16 13:12:00,40.0,26.0,-100.00,WSW,250,4.0,7.0,56,-99.99,,,-99.99,,2013-11-16 20:12:00,
2013-11-16 14:11:00,39.0,27.0,-100.00,WSW,250,4.0,7.0,63,-99.99,,,-99.99,,2013-11-16 21:11:00,
2013-11-16 14:54:00,38.0,29.0,-100.00,SW,225,3.0,6.0,70,-99.99,,,-99.99,,2013-11-16 21:54:00,
2013-11-16 15:13:00,37.0,29.0,-100.00,WSW,245,4.0,7.0,72,-99.99,,,-99.99,,2013-11-16 22:13:00,
2013-11-16 15:53:00,36.0,30.0,-100.00,SW,215,3.0,4.0,79,-99.99,,,-99.99,,2013-11-16 22:53:00,
2013-11-16 16:13:00,36.0,30.0,-100.00,SW,220,3.0,4.0,79,-99.99,,,-99.99,,2013-11-16 23:13:00,
2013-11-16 16:53:00,35.0,30.0,-100.00,SW,225,0.0,0.0,81,-99.99,,,-99.99,,2013-11-16 23:53:00,
2013-11-16 17:12:00,35.0,30.0,-100.00,SSE,150,1.0,1.0,82,-99.99,,,-99.99,,2013-11-17 00:12:00,
2013-11-16 17:52:00,34.0,29.0,-100.00,SE,130,0.0,2.0,83,-99.99,,,-99.99,,2013-11-17 00:52:00,
2013-11-16 18:12:00,34.0,30.0,-100.00,West,270,2.0,2.0,83,-99.99,,,-99.99,,2013-11-17 01:12:00,
2013-11-16 18:52:00,34.0,30.0,-100.00,WSW,255,1.0,2.0,83,-99.99,,,-99.99,,2013-11-17 01:52:00,
2013-11-16 19:12:00,34.0,30.0,-100.00,West,275,2.0,3.0,83,-99.99,,,-99.99,,2013-11-17 02:12:00,
2013-11-16 19:52:00,34.0,30.0,-100.00,WNW,285,4.0,4.0,84,-99.99,,,-99.99,,2013-11-17 02:52:00,
2013-11-16 20:12:00,34.0,29.0,-100.00,WNW,295,4.0,5.0,84,-99.99,,,-99.99,,2013-11-17 03:12:00,
2013-11-16 20:56:00,34.0,29.0,-100.00,SSW,195,0.0,2.0,84,-99.99,,,-99.99,,2013-11-17 03:56:00,
2013-11-16 21:03:00,-999.0,-99.9,-100.00,WSW,255,1.0,2.0,-999,-99.99,,,-99.99,,2013-11-17 04:03:00,
2013-11-16 21:14:00,34.0,29.0,-100.00,WSW,255,1.0,2.0,84,-99.99,,,-99.99,,2013-11-17 04:14:00,
2013-11-16 21:53:00,33.0,29.0,-100.00,South,175,1.0,1.0,84,-99.99,,,-99.99,,2013-11-17 04:53:00,
2013-11-16 22:13:00,33.0,29.0,-100.00,South,175,0.0,1.0,84,-99.99,,,-99.99,,2013-11-17 05:13:00,
2013-11-16 22:53:00,33.0,28.0,-100.00,SE,145,2.0,3.0,84,-99.99,,,-99.99,,2013-11-17 05:53:00,
2013-11-16 23:13:00,33.0,29.0,-100.00,SSE,155,0.0,2.0,84,-99.99,,,-99.99,,2013-11-17 06:13:00,
2013-11-16 23:52:00,34.0,30.0,-100.00,West,265,3.0,4.0,84,-99.99,,,-99.99,,2013-11-17 06:52:00,